Regional Weather Roundup
Issued by NWS State College, PA

Home | Current Version | Previous Version | Text Only | Print | Product List | Glossary Off
Versions: 1 2 3 4 5 6 7 8 9 10 11 12 13 14 15 16 17 18 19 20 21 22 23 24 25 26 27 28 29 30 31 32 33 34 35 36 37 38 39 40 41 42 43 44 45 46 47 48 49 50

000
ASUS41 KCTP 231603
RWRCTP

REGIONAL WEATHER ROUNDUP
NATIONAL WEATHER SERVICE STATE COLLEGE PA
1200 PM EDT TUE SEP 23 2014

Note: "fair" indicates few or no clouds below 12,000 feet with no
significant weather and/or obstructions to visibility.

* = STATION THAT DOES NOT REPORT PRECIPITATION /E.G. RAIN...SNOW...ETC/
    THUNDER OR FOG.

PAZ002>004-007>009-013>016-020>023-029>032-231700-
WESTERN PENNSYLVANIA

CITY           SKY/WX    TMP DP  RH WIND       PRES   REMARKS
ERIE           SUNNY     65  49  56 VRB6      30.35S
MEADVILLE      SUNNY     61  47  59 MISG      30.37S
FRANKLIN*      SUNNY     61  45  55 N5        30.38S
NEW CASTLE       N/A     61  46  57 CALM      30.39S
BEAVER COUNTY  SUNNY     59  46  63 SE5       30.39R
BUTLER*        SUNNY     57  45  62 NE6       30.40R
PITTSBURGH INT MOSUNNY   59  44  57 E6        30.38S
PITTSBURGH     SUNNY     58  41  53 VRB5      30.37S
INDIANA*       SUNNY     57  46  67 CALM      30.41F
LATROBE        SUNNY     57  46  67 N7        30.38S
WASHINGTON CO* SUNNY     61  45  55 NE5       30.39S
$$

PAZ004>006-010>012-017>019-024>028-033>037-041-042-045-046-049>053-231700-
CENTRAL PENNSYLVANIA

CITY           SKY/WX    TMP DP  RH WIND       PRES   REMARKS
BRADFORD       MOSUNNY   59  46  62 CALM      30.36R
DUBOIS         SUNNY     59  45  59 NE8       30.36S
CLEARFIELD     SUNNY     59  45  59 CALM      30.37F
JOHNSTOWN      SUNNY     57  43  59 CALM      30.36S
ALTOONA        SUNNY     59  44  57 SE3       30.38S
STATE COLLEGE  MOSUNNY   59  45  58 CALM      30.37S
WILLIAMSPORT   SUNNY     61  44  53 CALM      30.34F
SELINSGROVE    SUNNY     65  47  52 VRB3      30.36S
FT INDIANTOWN  SUNNY     63  45  52 S5        30.36R
CAPITAL CITY   SUNNY     63  44  50 VRB3      30.37R
HARRISBURG     SUNNY     65  46  50 VRB3      30.36R
YORK           SUNNY     63  41  44 VRB5      30.36R
$$

PAZ038>040-043-044-047-048-054-055-060>062-067>071-231700-
EASTERN PENNSYLVANIA

CITY           SKY/WX    TMP DP  RH WIND       PRES   REMARKS
SCRANTON       SUNNY     59  42  53 CALM      30.34F
MOUNT POCONO   SUNNY     61  39  44 N7        30.33S
ALLENTOWN      SUNNY     63  43  48 VRB3      30.34F
QUAKERTOWN*    SUNNY     63  41  45 E3        30.35S
READING        SUNNY     63  42  46 CALM      30.34S
LANCASTER      SUNNY     63  41  44 VRB7      30.36R
COATESVILLE    SUNNY     63  45  51 E9        30.36R
POTTSTOWN      SUNNY     63  44  50 NE6       30.35F
BLUE BELL      SUNNY     66  45  45 E6        30.34S
DOYLESTOWN     SUNNY     63  43  48 VRB5      30.33F
WILLOW GROVE   NOT AVBL
NORTH PHILA    SUNNY     65  40  39 S3        30.36S
PHILADELPHIA   PTSUNNY   65  41  41 VRB5      30.35R
$$


USA.gov is the U.S. government's official web portal to all federal, state and local government web resources and services.